BCS642 EDDP-OOMS

Flight info

Callsign BCS642
Flight time N/A
Altitude 35000
Route GOLAT2Q GOLAT T202 TABAT M736 RUDNO DCT LAMSI DCT LIDSI/N0471F370 DCT RADLY DCT PODET DCT KUSIB DCT TAZ DCT PETAK DCT DIMIS DCT SALUN N705 BOPIX N710 TAKRI P751 AST/N0474F390 P751 LXR M999 JDW V31 BSH L425 AMBIT DCT ASTIN DCT GOBRO L425 DEDSO R401 HAI B400 VUTAP B424 GISKA Y414 MCT
Aircraft A333/H-SDE3GHIJ2J3J5M1RVWXY/LB2D1

Departure

Time N/A
Airport Leipzig/Halle Airport (EDDP)

Arrival

Time 2026-04-29 22:52
Airport Muscat International Airport (OOMS)
Time Latitude Longitude Altitude Speed Heading
2026-04-29 20:19 20.28634 41.64754 37184 ft 514 kts 112°
2026-04-29 20:19 20.27474 41.68360 37183 ft 515 kts 111°
2026-04-29 20:20 20.25242 41.75555 37178 ft 515 kts 111°
2026-04-29 20:20 20.23000 41.82799 37161 ft 514 kts 111°
2026-04-29 20:21 20.20745 41.90011 37135 ft 513 kts 111°
2026-04-29 20:21 20.18482 41.97201 37108 ft 513 kts 111°
2026-04-29 20:22 20.16214 42.04383 37087 ft 511 kts 111°
2026-04-29 20:22 20.13955 42.11535 37083 ft 509 kts 111°
2026-04-29 20:23 20.11696 42.18674 37083 ft 509 kts 111°
2026-04-29 20:23 20.09434 42.25809 37074 ft 509 kts 111°
2026-04-29 20:24 20.07168 42.32946 37059 ft 509 kts 111°
2026-04-29 20:24 20.04902 42.40073 37050 ft 509 kts 111°
2026-04-29 20:25 20.02648 42.47154 37046 ft 508 kts 112°
2026-04-29 20:25 20.00377 42.54275 37049 ft 508 kts 112°
2026-04-29 20:26 19.98684 42.61571 37047 ft 513 kts 97°
2026-04-29 20:26 19.98652 42.65367 37046 ft 515 kts 86°
2026-04-29 20:26 19.99171 42.69138 37048 ft 516 kts 81°
2026-04-29 20:27 20.00386 42.75359 37050 ft 517 kts 78°
2026-04-29 20:27 20.02314 42.84064 37041 ft 518 kts 77°
2026-04-29 20:28 20.03950 42.91526 37037 ft 518 kts 78°
2026-04-29 20:28 20.05535 42.98991 37022 ft 518 kts 78°
2026-04-29 20:29 20.07101 43.06465 37031 ft 517 kts 78°
2026-04-29 20:29 20.08661 43.13940 37021 ft 518 kts 78°
2026-04-29 20:30 20.10224 43.21430 37009 ft 519 kts 78°
2026-04-29 20:30 20.11783 43.28911 37002 ft 518 kts 78°
2026-04-29 20:31 20.13325 43.36329 36989 ft 516 kts 78°
2026-04-29 20:31 20.14873 43.43790 36984 ft 516 kts 78°
2026-04-29 20:32 20.16416 43.51242 36986 ft 516 kts 78°
2026-04-29 20:32 20.17955 43.58696 36975 ft 516 kts 79°
2026-04-29 20:33 20.19495 43.66169 36973 ft 517 kts 79°
2026-04-29 20:33 20.21031 43.73637 36959 ft 516 kts 79°
2026-04-29 20:34 20.22564 43.81111 36958 ft 516 kts 79°
2026-04-29 20:34 20.24092 43.88577 36962 ft 516 kts 79°
2026-04-29 20:35 20.25617 43.96042 36953 ft 516 kts 79°
2026-04-29 20:35 20.27137 44.03506 36954 ft 516 kts 79°
2026-04-29 20:36 20.28656 44.10977 36944 ft 516 kts 79°
2026-04-29 20:36 20.30138 44.18456 36944 ft 515 kts 82°
2026-04-29 20:37 20.30481 44.26036 36950 ft 512 kts 93°
2026-04-29 20:37 20.30225 44.33606 36945 ft 511 kts 95°
2026-04-29 20:38 20.29844 44.41173 36936 ft 511 kts 95°
2026-04-29 20:38 20.29460 44.48690 36933 ft 511 kts 95°
2026-04-29 20:39 20.29089 44.56257 36931 ft 512 kts 95°
2026-04-29 20:39 20.28724 44.63825 36931 ft 511 kts 95°
2026-04-29 20:40 20.28359 44.71378 36926 ft 511 kts 95°
2026-04-29 20:40 20.27989 44.78944 36923 ft 512 kts 95°
2026-04-29 20:41 20.27614 44.86525 36921 ft 513 kts 95°
2026-04-29 20:41 20.27237 44.94101 36924 ft 513 kts 95°
2026-04-29 20:42 20.26855 45.01685 36913 ft 512 kts 95°
2026-04-29 20:42 20.26472 45.09260 36910 ft 511 kts 95°
2026-04-29 20:43 20.26085 45.16819 36908 ft 511 kts 95°
2026-04-29 20:43 20.25695 45.24366 36905 ft 510 kts 95°
2026-04-29 20:44 20.25304 45.31899 36900 ft 509 kts 95°
2026-04-29 20:44 20.24910 45.39419 36900 ft 508 kts 95°
2026-04-29 20:45 20.24512 45.46928 36893 ft 507 kts 95°
2026-04-29 20:45 20.24113 45.54420 36890 ft 507 kts 95°
2026-04-29 20:46 20.23710 45.61918 36884 ft 507 kts 95°
2026-04-29 20:46 20.23305 45.69402 36881 ft 506 kts 95°
2026-04-29 20:47 20.22897 45.76877 36877 ft 506 kts 96°
2026-04-29 20:47 20.22556 45.83084 36869 ft 505 kts 96°
2026-04-29 20:48 20.22076 45.91750 36861 ft 504 kts 96°
2026-04-29 20:48 20.21660 45.99195 36854 ft 503 kts 95°
2026-04-29 20:49 20.21241 46.06634 36856 ft 503 kts 95°
2026-04-29 20:49 20.20820 46.14060 36845 ft 503 kts 95°
2026-04-29 20:50 20.20396 46.21493 36843 ft 503 kts 95°
2026-04-29 20:50 20.19968 46.28919 36845 ft 502 kts 95°
2026-04-29 20:51 20.19538 46.36342 36840 ft 502 kts 95°
2026-04-29 20:51 20.19105 46.43762 36832 ft 502 kts 95°
2026-04-29 20:52 20.18670 46.51166 36831 ft 501 kts 96°
2026-04-29 20:52 20.18231 46.58569 36833 ft 500 kts 95°
2026-04-29 20:53 20.17790 46.65955 36823 ft 500 kts 95°
2026-04-29 20:53 20.17347 46.73333 36812 ft 500 kts 95°
2026-04-29 20:54 20.16676 46.84403 36812 ft 500 kts 95°
2026-04-29 20:55 20.16225 46.91785 36819 ft 500 kts 95°
2026-04-29 20:55 20.15771 46.99162 36805 ft 500 kts 95°
2026-04-29 20:56 20.15391 47.05298 36807 ft 499 kts 96°
2026-04-29 20:56 20.14931 47.12670 36803 ft 499 kts 96°
2026-04-29 20:57 20.14394 47.21235 36797 ft 499 kts 95°
2026-04-29 20:57 20.14005 47.27397 36795 ft 498 kts 95°
2026-04-29 20:58 20.13537 47.34748 36790 ft 497 kts 95°
2026-04-29 20:58 20.13068 47.42081 36786 ft 497 kts 95°
2026-04-29 20:59 20.12599 47.49364 36782 ft 496 kts 95°
2026-04-29 20:59 20.12124 47.56691 36781 ft 496 kts 95°
2026-04-29 21:00 20.11646 47.64012 36789 ft 496 kts 95°
2026-04-29 21:00 20.11165 47.71336 36779 ft 496 kts 95°
2026-04-29 21:01 20.10681 47.78660 36774 ft 496 kts 95°
2026-04-29 21:01 20.10194 47.85982 36774 ft 496 kts 95°
2026-04-29 21:02 20.09705 47.93297 36781 ft 495 kts 95°
2026-04-29 21:02 20.09214 48.00594 36778 ft 495 kts 95°
2026-04-29 21:03 20.08719 48.07894 36771 ft 494 kts 95°
2026-04-29 21:03 20.08223 48.15183 36771 ft 494 kts 95°
2026-04-29 21:04 20.07723 48.22467 36773 ft 494 kts 95°
2026-04-29 21:04 20.07221 48.29749 36771 ft 493 kts 95°
2026-04-29 21:05 20.06717 48.37017 36775 ft 492 kts 95°
2026-04-29 21:05 20.06213 48.44222 36781 ft 492 kts 95°
2026-04-29 21:06 20.05704 48.51473 36775 ft 491 kts 95°
2026-04-29 21:06 20.05193 48.58713 36776 ft 491 kts 95°
2026-04-29 21:07 20.04679 48.65946 36786 ft 490 kts 95°
2026-04-29 21:07 20.04164 48.73162 36774 ft 489 kts 95°
2026-04-29 21:08 20.03646 48.80365 36775 ft 488 kts 95°
2026-04-29 21:08 20.03125 48.87567 36779 ft 488 kts 95°
2026-04-29 21:09 20.02602 48.94761 36789 ft 488 kts 95°
2026-04-29 21:09 20.02076 49.01965 36774 ft 488 kts 95°
2026-04-29 21:10 20.01546 49.09168 36776 ft 488 kts 95°
2026-04-29 21:10 20.01015 49.16361 36774 ft 488 kts 95°
2026-04-29 21:11 20.00480 49.23561 36773 ft 488 kts 95°
2026-04-29 21:11 19.99942 49.30759 36778 ft 488 kts 96°
2026-04-29 21:12 19.99402 49.37945 36780 ft 487 kts 96°
2026-04-29 21:12 19.98859 49.45125 36769 ft 487 kts 96°
2026-04-29 21:13 19.98314 49.52303 36775 ft 487 kts 96°
2026-04-29 21:13 19.97770 49.59433 36774 ft 487 kts 96°
2026-04-29 21:14 19.97219 49.66606 36773 ft 487 kts 96°
2026-04-29 21:14 19.96665 49.73786 36768 ft 487 kts 96°
2026-04-29 21:15 19.96108 49.80966 36773 ft 488 kts 96°
2026-04-29 21:15 19.95547 49.88155 36766 ft 488 kts 96°
2026-04-29 21:16 19.94984 49.95344 36776 ft 488 kts 96°
2026-04-29 21:16 19.94418 50.02522 36768 ft 488 kts 96°
2026-04-29 21:17 19.93848 50.09709 36767 ft 488 kts 96°
2026-04-29 21:17 19.93276 50.16898 36768 ft 488 kts 96°
2026-04-29 21:18 19.92701 50.24080 36777 ft 488 kts 96°
2026-04-29 21:18 19.92123 50.31272 36771 ft 488 kts 96°
2026-04-29 21:19 19.91542 50.38458 36773 ft 488 kts 96°
2026-04-29 21:19 19.90958 50.45650 36776 ft 488 kts 96°
2026-04-29 21:20 19.90370 50.52843 36769 ft 489 kts 97°
2026-04-29 21:20 19.89780 50.60030 36769 ft 489 kts 97°
2026-04-29 21:21 19.89187 50.67225 36770 ft 488 kts 97°
2026-04-29 21:21 19.88595 50.74368 36772 ft 489 kts 97°
2026-04-29 21:22 19.87996 50.81556 36767 ft 488 kts 97°
2026-04-29 21:22 19.87396 50.88733 36773 ft 487 kts 97°
2026-04-29 21:23 19.86794 50.95896 36771 ft 487 kts 97°
2026-04-29 21:23 19.86187 51.03069 36767 ft 487 kts 97°
2026-04-29 21:24 19.85579 51.10223 36769 ft 487 kts 97°
2026-04-29 21:24 19.84968 51.17388 36767 ft 487 kts 97°
2026-04-29 21:25 19.84354 51.24553 36770 ft 487 kts 97°
2026-04-29 21:25 19.83738 51.31706 36772 ft 487 kts 97°
2026-04-29 21:26 19.83122 51.38820 36768 ft 487 kts 97°
2026-04-29 21:26 19.82499 51.45987 36775 ft 487 kts 97°
2026-04-29 21:27 19.81975 51.51988 36773 ft 487 kts 97°
2026-04-29 21:27 19.81245 51.60316 36780 ft 487 kts 97°
2026-04-29 21:28 19.80614 51.67478 36766 ft 486 kts 97°
2026-04-29 21:28 19.79981 51.74623 36773 ft 486 kts 97°
2026-04-29 21:29 19.79345 51.81772 36768 ft 486 kts 97°
2026-04-29 21:29 19.78706 51.88918 36785 ft 487 kts 97°
2026-04-29 21:30 19.78063 51.96078 36766 ft 487 kts 97°
2026-04-29 21:30 19.77417 52.03241 36776 ft 487 kts 97°
2026-04-29 21:31 19.76768 52.10407 36776 ft 488 kts 98°
2026-04-29 21:31 19.76116 52.17568 36763 ft 488 kts 98°
2026-04-29 21:32 19.75461 52.24737 36776 ft 488 kts 98°
2026-04-29 21:32 19.74804 52.31904 36776 ft 488 kts 98°
2026-04-29 21:33 19.74147 52.39024 36782 ft 488 kts 98°
2026-04-29 21:33 19.73479 52.46230 36781 ft 487 kts 98°
2026-04-29 21:34 19.72819 52.53325 36772 ft 487 kts 98°
2026-04-29 21:34 19.72151 52.60475 36773 ft 487 kts 98°
2026-04-29 21:35 19.71481 52.67623 36777 ft 487 kts 98°
2026-04-29 21:35 19.70808 52.74771 36774 ft 487 kts 98°
2026-04-29 21:36 19.70131 52.81919 36771 ft 487 kts 98°
2026-04-29 21:36 19.69453 52.89059 36785 ft 487 kts 98°
2026-04-29 21:37 19.68771 52.96207 36776 ft 487 kts 98°
2026-04-29 21:37 19.68086 53.03354 36788 ft 487 kts 98°
2026-04-29 21:38 19.67397 53.10503 36774 ft 487 kts 98°
2026-04-29 21:38 19.66707 53.17652 36789 ft 487 kts 98°
2026-04-29 21:39 19.66015 53.24788 36788 ft 486 kts 98°
2026-04-29 21:39 19.65319 53.31928 36777 ft 487 kts 98°
2026-04-29 21:40 19.64619 53.39071 36782 ft 487 kts 98°
2026-04-29 21:40 19.63918 53.46213 36777 ft 487 kts 98°
2026-04-29 21:41 19.63213 53.53353 36791 ft 487 kts 98°
2026-04-29 21:41 19.62505 53.60494 36788 ft 487 kts 98°
2026-04-29 21:42 19.61801 53.67581 36786 ft 487 kts 98°
2026-04-29 21:42 19.61204 53.73566 36782 ft 487 kts 98°
2026-04-29 21:43 19.59913 53.81753 36790 ft 483 kts 107°
2026-04-29 21:43 19.58110 53.88608 36790 ft 482 kts 109°
2026-04-29 21:44 19.56192 53.95422 36796 ft 482 kts 109°
2026-04-29 21:44 19.54265 54.02211 36781 ft 481 kts 109°
2026-04-29 21:45 19.52341 54.09005 36795 ft 481 kts 109°
2026-04-29 21:45 19.50422 54.15800 36783 ft 481 kts 109°
2026-04-29 21:46 19.48505 54.22588 36797 ft 481 kts 109°
2026-04-29 21:46 19.46907 54.28236 36798 ft 481 kts 109°
2026-04-29 21:47 19.44985 54.35023 36794 ft 481 kts 109°
2026-04-29 21:47 19.43062 54.41799 36781 ft 481 kts 109°
2026-04-29 21:48 19.41133 54.48587 36793 ft 480 kts 109°
2026-04-29 21:48 19.39209 54.55348 36798 ft 479 kts 109°
2026-04-29 21:49 19.37282 54.62109 36797 ft 479 kts 109°
2026-04-29 21:49 19.35352 54.68869 36796 ft 479 kts 109°
2026-04-29 21:50 19.33420 54.75627 36797 ft 479 kts 109°
2026-04-29 21:50 19.31485 54.82384 36797 ft 479 kts 109°
2026-04-29 21:51 19.29550 54.89131 36804 ft 479 kts 109°
2026-04-29 21:51 19.26639 54.99262 36808 ft 479 kts 109°
2026-04-29 21:52 19.24709 55.05966 36815 ft 479 kts 109°
2026-04-29 21:52 19.22755 55.12743 36817 ft 479 kts 109°
2026-04-29 21:53 19.20810 55.19480 36812 ft 479 kts 109°
2026-04-29 21:53 19.18862 55.26216 36808 ft 479 kts 109°
2026-04-29 21:54 19.16911 55.32952 36815 ft 479 kts 109°
2026-04-29 21:54 19.14959 55.39680 36812 ft 479 kts 109°
2026-04-29 21:55 19.13003 55.46416 36815 ft 479 kts 109°
2026-04-29 21:55 19.11057 55.53104 36813 ft 479 kts 109°
2026-04-29 21:56 19.09096 55.59835 36816 ft 479 kts 109°
2026-04-29 21:56 19.07135 55.66558 36815 ft 478 kts 109°
2026-04-29 21:57 19.05174 55.73266 36814 ft 478 kts 109°
2026-04-29 21:57 19.03204 55.79980 36809 ft 478 kts 109°
2026-04-29 21:58 19.02108 55.86920 36808 ft 483 kts 92°
2026-04-29 21:58 19.03196 55.93925 36811 ft 488 kts 71°
2026-04-29 21:59 19.04634 55.97183 36815 ft 491 kts 60°
2026-04-29 21:59 19.06627 56.00118 36810 ft 493 kts 49°
2026-04-29 21:59 19.09104 56.02619 36808 ft 495 kts 38°
2026-04-29 21:59 19.11990 56.04607 36811 ft 496 kts 27°
2026-04-29 22:00 19.18498 56.07038 36810 ft 498 kts 15°
2026-04-29 22:00 19.25225 56.08834 36811 ft 499 kts 13°
2026-04-29 22:01 19.31980 56.10563 36802 ft 499 kts 13°
2026-04-29 22:01 19.38725 56.12335 36801 ft 499 kts 14°
2026-04-29 22:02 19.45454 56.14138 36801 ft 499 kts 14°
2026-04-29 22:02 19.52188 56.15955 36797 ft 499 kts 14°
2026-04-29 22:03 19.58924 56.17773 36800 ft 500 kts 14°
2026-04-29 22:03 19.65618 56.19579 36797 ft 500 kts 14°
2026-04-29 22:04 19.72357 56.21399 36798 ft 500 kts 14°
2026-04-29 22:04 19.79089 56.23218 36792 ft 500 kts 14°
2026-04-29 22:05 19.85832 56.25041 36791 ft 500 kts 14°
2026-04-29 22:06 19.95920 56.27843 36791 ft 500 kts 19°
2026-04-29 22:06 20.02339 56.30687 36782 ft 500 kts 24°
2026-04-29 22:07 20.08651 56.33795 36785 ft 499 kts 25°
2026-04-29 22:07 20.14933 56.36955 36786 ft 499 kts 25°
2026-04-29 22:08 20.21213 56.40107 36785 ft 500 kts 25°
2026-04-29 22:08 20.27507 56.43253 36779 ft 500 kts 25°
2026-04-29 22:09 20.33803 56.46397 36783 ft 500 kts 25°
2026-04-29 22:09 20.40098 56.49542 36765 ft 500 kts 25°
2026-04-29 22:10 20.46394 56.52686 36764 ft 499 kts 25°
2026-04-29 22:10 20.52684 56.55828 36779 ft 499 kts 25°
2026-04-29 22:11 20.58977 56.58974 36765 ft 499 kts 25°
2026-04-29 22:11 20.65257 56.62119 36774 ft 498 kts 25°
2026-04-29 22:12 20.71528 56.65261 36779 ft 498 kts 25°
2026-04-29 22:12 20.77757 56.68385 36762 ft 498 kts 25°
2026-04-29 22:13 20.84028 56.71533 36776 ft 498 kts 25°
2026-04-29 22:13 20.89980 56.75263 36779 ft 497 kts 40°
2026-04-29 22:14 20.94751 56.80573 36781 ft 496 kts 51°
2026-04-29 22:14 20.99077 56.86322 36782 ft 496 kts 52°
2026-04-29 22:15 21.03316 56.92135 36764 ft 496 kts 53°
2026-04-29 22:15 21.07573 56.97943 36769 ft 496 kts 52°
2026-04-29 22:16 21.11849 57.03735 36786 ft 496 kts 52°
2026-04-29 22:16 21.16137 57.09533 36771 ft 496 kts 52°
2026-04-29 22:17 21.20424 57.15334 36775 ft 497 kts 52°
2026-04-29 22:17 21.24718 57.21153 36779 ft 498 kts 52°
2026-04-29 22:18 21.29011 57.26977 36797 ft 498 kts 52°
2026-04-29 22:18 21.33297 57.32798 36780 ft 498 kts 52°
2026-04-29 22:19 21.37585 57.38629 36788 ft 498 kts 52°
2026-04-29 22:19 21.41846 57.44429 36787 ft 498 kts 52°
2026-04-29 22:20 21.46135 57.50272 36784 ft 498 kts 52°
2026-04-29 22:20 21.50419 57.56116 36797 ft 498 kts 52°
2026-04-29 22:21 21.54708 57.61972 36793 ft 499 kts 52°
2026-04-29 22:21 21.59447 57.67414 36792 ft 499 kts 37°
2026-04-29 22:22 21.65147 57.71640 36789 ft 498 kts 32°
2026-04-29 22:22 21.71037 57.75596 36789 ft 499 kts 31°
2026-04-29 22:23 21.76947 57.79505 36792 ft 499 kts 31°
2026-04-29 22:23 21.82840 57.83435 36792 ft 499 kts 31°
2026-04-29 22:24 21.88727 57.87389 36789 ft 499 kts 31°
2026-04-29 22:24 21.94611 57.91353 36793 ft 499 kts 31°
2026-04-29 22:25 22.00488 57.95316 36789 ft 499 kts 31°
2026-04-29 22:25 22.03432 57.97302 36572 ft 499 kts 31°
2026-04-29 22:25 22.06376 57.99289 36325 ft 499 kts 31°
2026-04-29 22:25 22.09281 58.01251 36086 ft 500 kts 31°
2026-04-29 22:26 22.12351 58.03099 35831 ft 498 kts 22°
2026-04-29 22:26 22.15619 58.04264 35598 ft 495 kts 10°
2026-04-29 22:26 22.19008 58.04926 35373 ft 495 kts
2026-04-29 22:26 22.22373 58.05462 35114 ft 495 kts
2026-04-29 22:27 22.25785 58.05978 34502 ft 496 kts
2026-04-29 22:27 22.29214 58.06489 33714 ft 501 kts
2026-04-29 22:27 22.32682 58.07005 32843 ft 505 kts
2026-04-29 22:27 22.36173 58.07525 32019 ft 508 kts
2026-04-29 22:28 22.39684 58.08048 31177 ft 511 kts
2026-04-29 22:28 22.43219 58.08574 30303 ft 515 kts
2026-04-29 22:28 22.46781 58.09106 29301 ft 519 kts
2026-04-29 22:28 22.50366 58.09641 28444 ft 519 kts
2026-04-29 22:29 22.52714 58.09993 28208 ft 512 kts
2026-04-29 22:29 22.57372 58.10692 27661 ft 499 kts
2026-04-29 22:29 22.60789 58.11204 27111 ft 493 kts
2026-04-29 22:29 22.64171 58.11709 26534 ft 489 kts
2026-04-29 22:30 22.67530 58.12211 25956 ft 486 kts
2026-04-29 22:30 22.70873 58.12711 25379 ft 482 kts
2026-04-29 22:30 22.74180 58.13207 24823 ft 478 kts
2026-04-29 22:30 22.77468 58.13699 24263 ft 475 kts
2026-04-29 22:31 22.80736 58.14189 23718 ft 473 kts
2026-04-29 22:31 22.83983 58.14676 23111 ft 470 kts
2026-04-29 22:31 22.87208 58.15160 22503 ft 466 kts
2026-04-29 22:31 22.90402 58.15640 21918 ft 461 kts
2026-04-29 22:32 22.93566 58.16115 21363 ft 457 kts
2026-04-29 22:32 22.96696 58.16584 20786 ft 452 kts
2026-04-29 22:32 22.99796 58.17050 20230 ft 448 kts
2026-04-29 22:32 23.02871 58.17513 19666 ft 444 kts
2026-04-29 22:33 23.05920 58.17973 19125 ft 440 kts
2026-04-29 22:33 23.08939 58.18427 18574 ft 437 kts
2026-04-29 22:33 23.10929 58.18727 18213 ft 434 kts
2026-04-29 22:33 23.13910 58.19177 17648 ft 430 kts
2026-04-29 22:34 23.16852 58.19620 17089 ft 425 kts
2026-04-29 22:34 23.20703 58.20202 16377 ft 418 kts
2026-04-29 22:34 23.23555 58.20633 16028 ft 408 kts
2026-04-29 22:34 23.26323 58.21052 15831 ft 395 kts
2026-04-29 22:35 23.28998 58.21457 15648 ft 382 kts
2026-04-29 22:35 23.30751 58.21723 15512 ft 373 kts
2026-04-29 22:35 23.33282 58.22106 15344 ft 361 kts
2026-04-29 22:35 23.35731 58.22476 15201 ft 350 kts
2026-04-29 22:36 23.38103 58.22834 15036 ft 338 kts
2026-04-29 22:36 23.40403 58.23181 14914 ft 327 kts
2026-04-29 22:36 23.42604 58.23516 14901 ft 313 kts
2026-04-29 22:36 23.44669 58.23946 14900 ft 301 kts 15°
2026-04-29 22:37 23.46510 58.25015 14823 ft 295 kts 38°
2026-04-29 22:37 23.47757 58.26749 14650 ft 291 kts 63°
2026-04-29 22:37 23.48291 58.28824 14325 ft 289 kts 81°
2026-04-29 22:37 23.48502 58.31029 13983 ft 288 kts 84°
2026-04-29 22:38 23.48655 58.33173 13652 ft 287 kts 84°
2026-04-29 22:38 23.48811 58.35331 13296 ft 285 kts 84°
2026-04-29 22:38 23.48974 58.37476 12919 ft 283 kts 84°
2026-04-29 22:38 23.49142 58.39598 12663 ft 277 kts 84°
2026-04-29 22:39 23.49309 58.41650 12532 ft 266 kts 84°
2026-04-29 22:39 23.49468 58.43615 12371 ft 255 kts 84°
2026-04-29 22:39 23.49621 58.45508 12166 ft 247 kts 84°
2026-04-29 22:39 23.49772 58.47354 11887 ft 243 kts 84°
2026-04-29 22:40 23.49921 58.49175 11552 ft 241 kts 84°
2026-04-29 22:40 23.50070 58.50994 11225 ft 241 kts 84°
2026-04-29 22:40 23.50219 58.52809 10911 ft 240 kts 84°
2026-04-29 22:40 23.50367 58.54615 10601 ft 239 kts 84°
2026-04-29 22:41 23.50514 58.56411 10293 ft 237 kts 84°
2026-04-29 22:41 23.50660 58.58196 9996 ft 234 kts 84°
2026-04-29 22:41 23.50803 58.59953 9692 ft 231 kts 84°
2026-04-29 22:41 23.51074 58.61659 9366 ft 227 kts 71°
2026-04-29 22:42 23.51775 58.63181 9001 ft 224 kts 50°
2026-04-29 22:42 23.52907 58.64307 8652 ft 218 kts 28°
2026-04-29 22:42 23.54282 58.64906 8335 ft 209 kts
2026-04-29 22:42 23.55712 58.64998 8018 ft 204 kts 354°
2026-04-29 22:43 23.57125 58.64885 7681 ft 202 kts 351°
2026-04-29 22:43 23.58512 58.64692 7370 ft 200 kts 345°
2026-04-29 22:43 23.59800 58.64178 7047 ft 195 kts 328°
2026-04-29 22:43 23.60846 58.63265 6753 ft 192 kts 310°
2026-04-29 22:44 23.61532 58.62037 6454 ft 191 kts 289°
2026-04-29 22:44 23.61766 58.60628 6081 ft 193 kts 276°
2026-04-29 22:44 23.61756 58.59157 5695 ft 196 kts 269°
2026-04-29 22:44 23.61648 58.57683 5269 ft 193 kts 268°
2026-04-29 22:45 23.61529 58.56234 4831 ft 191 kts 269°
2026-04-29 22:45 23.61411 58.54789 4332 ft 192 kts 269°
2026-04-29 22:45 23.61293 58.53321 3824 ft 192 kts 268°
2026-04-29 22:45 23.61181 58.51900 3491 ft 183 kts 268°
2026-04-29 22:46 23.61077 58.50580 3290 ft 170 kts 268°
2026-04-29 22:46 23.60978 58.49349 3128 ft 157 kts 268°
2026-04-29 22:46 23.60886 58.48198 2971 ft 149 kts 269°
2026-04-29 22:46 23.60798 58.47082 2779 ft 148 kts 266°
2026-04-29 22:47 23.60708 58.45960 2578 ft 149 kts 264°
2026-04-29 22:47 23.60614 58.44839 2381 ft 148 kts 265°
2026-04-29 22:47 23.60519 58.43718 2232 ft 148 kts 264°
2026-04-29 22:47 23.60436 58.42598 2062 ft 148 kts 265°
2026-04-29 22:48 23.60355 58.41480 1862 ft 147 kts 264°
2026-04-29 22:48 23.60263 58.40371 1665 ft 147 kts 264°
2026-04-29 22:48 23.60172 58.39258 1482 ft 147 kts 264°
2026-04-29 22:48 23.60089 58.38151 1293 ft 145 kts 264°
2026-04-29 22:49 23.60001 58.37056 1128 ft 145 kts 263°
2026-04-29 22:49 23.59902 58.35961 986 ft 145 kts 263°
2026-04-29 22:49 23.59814 58.34867 825 ft 145 kts 265°
2026-04-29 22:49 23.59743 58.33775 650 ft 144 kts 266°
2026-04-29 22:50 23.59668 58.32691 445 ft 143 kts 264°
2026-04-29 22:50 23.59576 58.31612 280 ft 143 kts 264°
2026-04-29 22:50 23.59481 58.30540 107 ft 141 kts 264°
2026-04-29 22:50 23.59393 58.29501 48 ft 124 kts 265°
2026-04-29 22:51 23.59338 58.28778 47 ft 67 kts 265°
2026-04-29 22:51 23.59299 58.28322 47 ft 58 kts 264°
2026-04-29 22:51 23.59236 58.27506 48 ft 51 kts 265°
2026-04-29 22:52 23.59206 58.27130 49 ft 48 kts 265°
2026-04-29 22:52 23.59173 58.26779 48 ft 39 kts 264°
2026-04-29 22:52 23.59266 58.26689 48 ft 19 kts 355°
2026-04-29 22:52 23.59406 58.26677 48 ft 20 kts
2026-04-29 22:53 23.59469 58.26775 48 ft 17 kts 85°
2026-04-29 22:53 23.59478 58.26905 48 ft 18 kts 84°
2026-04-29 22:53 23.59491 58.27044 48 ft 19 kts 84°
2026-04-29 22:53 23.59504 58.27197 48 ft 23 kts 85°
2026-04-29 22:54 23.59519 58.27391 48 ft 27 kts 85°
2026-04-29 22:54 23.59536 58.27602 48 ft 29 kts 85°
2026-04-29 22:54 23.59555 58.27826 47 ft 30 kts 84°
2026-04-29 22:54 23.59574 58.28059 48 ft 32 kts 85°
2026-04-29 22:55 23.59594 58.28302 48 ft 33 kts 85°
2026-04-29 22:55 23.59614 58.28554 48 ft 34 kts 85°
2026-04-29 22:55 23.59635 58.28814 48 ft 35 kts 85°
2026-04-29 22:55 23.59656 58.29080 48 ft 36 kts 85°
2026-04-29 22:56 23.59678 58.29347 48 ft 35 kts 85°
2026-04-29 22:56 23.59699 58.29613 46 ft 35 kts 85°
2026-04-29 22:56 23.59719 58.29862 48 ft 22 kts 85°
2026-04-29 22:56 23.59738 58.30026 48 ft 21 kts 63°
2026-04-29 22:57 23.59833 58.30056 48 ft 8 kts 355°
2026-04-29 22:57 23.59849 58.30054 47 ft 0 kts 355°